[[{"header":{"parameterUnit":"m.s-1","parameterCategory":1,"la1":30.2991,"la2":30.254,"lo1":-89.0895,"lo2":-89.0444,"dy":0.0017,"dx":0.0017,"nx":28,"ny":28,"refTime":"2024-11-24T09:00:00:Z","depth":0,"parameterNumber":2,"parameterNumberName":"U-component_of_WINDS"},"data":[0,0,0,0,0,0,0,0,0,0,0,0,0,0,0,0,0,0,0,0,0,0,0,0,0,0,0,0,0,0,0,0,0,0,0,0,0,0,0,0,0,0,0,0,0,0,0,0,0,0,0,0,0,0,0,0,0,0,0.5465,0.5465,0,0.5503,0.5503,0.5503,0.5525,0.5525,0.5525,0.5525,0.5562,0.5563,0.5564,0,0,0,0,0,0,0,0,0,0,0,0,0,0.5408,0.5409,0.5465,0.5465,0.5466,0.5503,0.5503,0.5504,0.5525,0.5525,0.5525,0.5525,0.5561,0.5563,0.5564,0,0,0,0,0,0,0,0,0,0,0,0,0,0.5438,0.541,0.5465,0.5481,0.5482,0.5502,0.5503,0.5504,0.5525,0.5525,0.5525,0.5525,0.5561,0.5562,0.5564,0.557,0,0,0.5568,0.5569,0,0,0,0,0,0,0,0,0.5436,0.544,0.5478,0.5479,0.5482,0.5509,0.5497,0.5526,0.5524,0.5508,0.5525,0.5525,0.5544,0.5547,0.5554,0.5572,0.5574,0.5568,0.5569,0.557,0.557,0,0,0,0,0,0,0,0.5434,0.5439,0.548,0.5478,0.5481,0.5485,0.549,0.5502,0.5525,0.551,0.5511,0.5516,0.5545,0.5552,0.5555,0.5574,0.5568,0.5569,0.557,0.5571,0.56,0.56,0,0,0,0,0,0,0.543,0.5437,0.5478,0.5481,0.5459,0.5486,0.5491,0.55,0.5525,0.5529,0.5516,0.5517,0.555,0.5553,0.5556,0.5565,0.557,0.5571,0.5572,0.56,0.56,0.56,0,0,0,0,0,0,0.5429,0.5434,0.5477,0.5459,0.5465,0.5487,0.5497,0.5501,0.5508,0.5529,0.5533,0.5519,0.555,0.5554,0.5567,0.5567,0.5571,0.5573,0.56,0.56,0.56,0.5584,0,0,0,0,0,0,0.5427,0.5433,0.5436,0.5459,0.5466,0.5487,0.5497,0.5501,0.5511,0.5512,0.5534,0.5537,0.555,0.5565,0.5568,0.5569,0.5574,0.56,0.56,0.56,0.5585,0.5584,0.5583,0,0,0,0,0,0.5425,0.543,0.5436,0.5441,0.547,0.5487,0.5491,0.5507,0.551,0.5514,0.5527,0.5537,0.5566,0.5566,0.557,0.5571,0.56,0.56,0.56,0.5585,0.5584,0.5583,0,0,0,0,0,0,0.5405,0.5433,0.544,0.5453,0.5468,0.5491,0.5495,0.5505,0.5518,0.5519,0.5537,0.5542,0.5553,0.5563,0.5562,0.5579,0.5584,0.5585,0.5572,0.5571,0.5569,0.5567,0.5575,0,0,0,0,0,0.5402,0.5414,0.5438,0.5447,0.5454,0.5473,0.5481,0.5492,0.5508,0.5514,0.5529,0.5543,0.5556,0.5564,0.5577,0.5587,0.5591,0.5589,0.5588,0.5587,0.5588,0.5594,0.5593,0.56,0.56,0.56,0,0,0.5397,0.5413,0.542,0.5443,0.5456,0.5467,0.5478,0.549,0.5499,0.5515,0.5529,0.554,0.5557,0.5569,0.5574,0.5578,0.5587,0.5587,0.5586,0.5587,0.5593,0.5593,0.5592,0.56,0.56,0.56,0,0,0.5392,0.5406,0.5415,0.5427,0.5447,0.546,0.5462,0.5484,0.5492,0.5506,0.5519,0.5529,0.555,0.5562,0.5571,0.5571,0.558,0.5575,0.5569,0.5575,0.5574,0.5574,0.5574,0.5573,0.5575,0.5575,0.5575,0,0.5382,0.54,0.5418,0.5429,0.5439,0.5455,0.5464,0.5475,0.5498,0.5504,0.5507,0.5535,0.5548,0.5562,0.5562,0.5569,0.5572,0.5572,0.5573,0.5573,0.5573,0.5573,0.5573,0.5574,0.5574,0.5574,0.5575,0,0.5387,0.54,0.5404,0.5426,0.5437,0.5446,0.5465,0.5473,0.5483,0.5495,0.5509,0.5525,0.5542,0.5546,0.5555,0.5562,0.5563,0.5569,0.5575,0.5571,0.5571,0.5571,0.5573,0.5573,0.5574,0.5574,0,0,0.537,0.5402,0.5404,0.5414,0.5437,0.5446,0.5457,0.5474,0.548,0.5495,0.5504,0.5522,0.5529,0.5539,0.555,0.5555,0.5554,0.5561,0.5561,0.5559,0.5562,0.5556,0.5556,0.556,0.556,0.556,0.556,0,0.5369,0.5389,0.5405,0.5419,0.5431,0.5447,0.5456,0.5471,0.5483,0.5494,0.5507,0.552,0.5527,0.5533,0.5539,0.5553,0.5554,0.5553,0.5568,0.5568,0.5563,0.5557,0.5551,0.555,0.556,0.556,0.556,0,0.5369,0.5385,0.54,0.5422,0.5427,0.5435,0.5452,0.5463,0.548,0.5488,0.5499,0.5511,0.5523,0.5527,0.5543,0.5542,0.5549,0.5557,0.5557,0.5559,0.5564,0.5558,0.555,0.555,0.5561,0.5561,0.5561,0,0.5356,0.538,0.5392,0.54,0.5426,0.5431,0.5442,0.5459,0.5468,0.5483,0.5489,0.5504,0.5513,0.5524,0.554,0.5542,0.5554,0.556,0.5561,0.556,0.5562,0.5562,0.5556,0.5567,0.5567,0.5567,0.5567,0,0.5352,0.5361,0.5386,0.5394,0.5404,0.5422,0.5432,0.5444,0.5459,0.5469,0.5484,0.5492,0.5512,0.5524,0.5536,0.5547,0.555,0.5557,0.556,0.5556,0.5555,0.5561,0.5561,0.5567,0.5567,0.5567,0.5567,0,0.5338,0.5356,0.537,0.5394,0.54,0.5406,0.5426,0.5434,0.5447,0.5459,0.5463,0.5483,0.5497,0.5514,0.5533,0.5541,0.5551,0.5556,0.5546,0.5547,0.5547,0.5547,0.5544,0.5545,0.5556,0.5556,0.5556,0,0.5334,0.5342,0.5366,0.5374,0.5385,0.5397,0.5407,0.5425,0.5435,0.5455,0.546,0.5475,0.5488,0.551,0.5526,0.5541,0.5546,0.5544,0.5548,0.5543,0.5545,0.5545,0.5546,0.5542,0.5542,0.5542,0.5542,0,0.5326,0.5334,0.5348,0.5365,0.5376,0.539,0.5404,0.541,0.5431,0.544,0.5455,0.5466,0.5486,0.55,0.5517,0.5528,0.5538,0.5541,0.5542,0.5537,0.5531,0.5534,0.5542,0.554,0.5541,0.5541,0.5541,0.5541,0.5317,0.5324,0.5343,0.5357,0.537,0.5384,0.5392,0.5406,0.5419,0.5437,0.5447,0.5462,0.5479,0.5503,0.5513,0.5525,0.5528,0.5529,0.553,0.553,0.5528,0.5529,0.5528,0.5528,0.5528,0.5528,0.5528,0,0.5309,0.5322,0.5335,0.5355,0.5367,0.5376,0.5393,0.5402,0.5415,0.543,0.5443,0.546,0.5474,0.5492,0.5508,0.5513,0.5518,0.5517,0.5516,0.5519,0.5524,0.5522,0.5512,0.5512,0.5512,0.5512,0.5512,0.5512,0.5306,0.5319,0.533,0.5349,0.5362,0.5377,0.5385,0.5397,0.541,0.5428,0.5441,0.5452,0.5468,0.5486,0.5499,0.5504,0.5509,0.5506,0.5512,0.5517,0.5518,0.552,0.5517,0.5507,0.5507,0.5506,0.5505,0.5505]},{"header":{"parameterUnit":"m.s-1","parameterCategory":1,"la1":30.2991,"la2":30.254,"lo1":-89.0895,"lo2":-89.0444,"dy":0.0017,"dx":0.0017,"nx":28,"ny":28,"refTime":"2024-11-24T09:00:00:Z","depth":0,"parameterNumber":3,"parameterNumberName":"V-component_of_WINDS"},"data":[0,0,0,0,0,0,0,0,0,0,0,0,0,0,0,0,0,0,0,0,0,0,0,0,0,0,0,0,0,0,0,0,0,0,0,0,0,0,0,0,0,0,0,0,0,0,0,0,0,0,0,0,0,0,0,0,0,0,-0.0835,-0.0836,0,-0.0914,-0.0915,-0.0916,-0.0961,-0.0962,-0.0962,-0.0962,-0.1045,-0.1047,-0.1049,0,0,0,0,0,0,0,0,0,0,0,0,0,-0.0724,-0.0725,-0.0835,-0.0836,-0.0837,-0.0914,-0.0915,-0.0916,-0.0961,-0.0962,-0.0962,-0.0962,-0.1044,-0.1047,-0.1049,0,0,0,0,0,0,0,0,0,0,0,0,0,-0.0784,-0.0726,-0.0835,-0.0868,-0.0872,-0.0914,-0.0915,-0.0917,-0.0961,-0.0962,-0.0962,-0.0962,-0.1044,-0.1047,-0.105,-0.1064,0,0,-0.1059,-0.1061,0,0,0,0,0,0,0,0,-0.0781,-0.0788,-0.0862,-0.0866,-0.0871,-0.0928,-0.0907,-0.0966,-0.0961,-0.0928,-0.0962,-0.0962,-0.1006,-0.1012,-0.1027,-0.1068,-0.1072,-0.106,-0.1061,-0.1063,-0.1064,0,0,0,0,0,0,0,-0.0777,-0.0785,-0.0866,-0.0864,-0.0868,-0.088,-0.0889,-0.0918,-0.0965,-0.0931,-0.0934,-0.0943,-0.1008,-0.1024,-0.1029,-0.1073,-0.1059,-0.1062,-0.1064,-0.1065,-0.1132,-0.1132,0,0,0,0,0,0,-0.0767,-0.0781,-0.0864,-0.0869,-0.0825,-0.0882,-0.0892,-0.091,-0.0964,-0.0973,-0.0942,-0.0945,-0.1018,-0.1025,-0.1032,-0.1054,-0.1063,-0.1066,-0.1067,-0.1132,-0.1132,-0.1132,0,0,0,0,0,0,-0.0764,-0.0774,-0.0861,-0.0826,-0.0838,-0.0884,-0.0903,-0.0911,-0.0926,-0.0973,-0.0982,-0.0949,-0.1019,-0.1028,-0.1056,-0.1057,-0.1067,-0.107,-0.1132,-0.1132,-0.1132,-0.1096,0,0,0,0,0,0,-0.0761,-0.0772,-0.0778,-0.0826,-0.084,-0.0882,-0.0903,-0.0912,-0.0931,-0.0935,-0.0982,-0.099,-0.102,-0.1051,-0.1059,-0.1062,-0.1072,-0.1132,-0.1132,-0.1132,-0.1098,-0.1095,-0.1093,0,0,0,0,0,-0.0757,-0.0765,-0.0778,-0.0788,-0.0847,-0.0882,-0.089,-0.0923,-0.0931,-0.0938,-0.0968,-0.0989,-0.1056,-0.1054,-0.1063,-0.1067,-0.1132,-0.1132,-0.1132,-0.1099,-0.1096,-0.1093,0,0,0,0,0,0,-0.0716,-0.0772,-0.0787,-0.0811,-0.0841,-0.089,-0.0899,-0.0919,-0.0948,-0.095,-0.0991,-0.1001,-0.1026,-0.1049,-0.1046,-0.1084,-0.1096,-0.1098,-0.1068,-0.1065,-0.1063,-0.1057,-0.1075,0,0,0,0,0,-0.071,-0.0733,-0.0781,-0.0797,-0.0812,-0.0853,-0.0869,-0.0892,-0.0925,-0.0939,-0.0971,-0.1004,-0.1032,-0.105,-0.1079,-0.1101,-0.1113,-0.1108,-0.1106,-0.1104,-0.1105,-0.1119,-0.1118,-0.1131,-0.1131,-0.1131,0,0,-0.0698,-0.0731,-0.0743,-0.079,-0.0817,-0.084,-0.0863,-0.0887,-0.0906,-0.0943,-0.0972,-0.0996,-0.1035,-0.1061,-0.1074,-0.1081,-0.1104,-0.1103,-0.1101,-0.1104,-0.1119,-0.1118,-0.1117,-0.1131,-0.1131,-0.1131,0,0,-0.0688,-0.0714,-0.0732,-0.0758,-0.0797,-0.0825,-0.0829,-0.0874,-0.0892,-0.0922,-0.095,-0.0973,-0.1021,-0.1048,-0.1067,-0.1068,-0.1089,-0.1076,-0.1064,-0.1077,-0.1076,-0.1076,-0.1077,-0.1076,-0.1077,-0.1077,-0.1077,0,-0.0667,-0.0704,-0.0738,-0.0761,-0.0781,-0.0815,-0.0833,-0.0857,-0.0904,-0.0918,-0.0925,-0.0987,-0.1015,-0.1048,-0.1048,-0.1063,-0.1069,-0.1071,-0.1074,-0.1073,-0.1073,-0.1075,-0.1075,-0.1075,-0.1075,-0.1076,-0.1076,0,-0.0677,-0.0702,-0.0711,-0.0756,-0.0777,-0.0797,-0.0835,-0.0853,-0.0874,-0.09,-0.0931,-0.0966,-0.1003,-0.1012,-0.1033,-0.1048,-0.1052,-0.1066,-0.1079,-0.107,-0.1072,-0.1072,-0.1073,-0.1073,-0.1074,-0.1074,0,0,-0.0644,-0.0707,-0.071,-0.0731,-0.0777,-0.0798,-0.082,-0.0856,-0.087,-0.0902,-0.0922,-0.0962,-0.0975,-0.0998,-0.1022,-0.1034,-0.1033,-0.1047,-0.1049,-0.1044,-0.1053,-0.1043,-0.1043,-0.1047,-0.1047,-0.1047,-0.105,0,-0.0641,-0.0682,-0.0714,-0.0743,-0.0767,-0.08,-0.0819,-0.085,-0.0876,-0.0901,-0.0929,-0.0957,-0.0972,-0.0986,-0.0999,-0.103,-0.1036,-0.1031,-0.1067,-0.1068,-0.1057,-0.1044,-0.1033,-0.1033,-0.1051,-0.1051,-0.1051,0,-0.0643,-0.0673,-0.0704,-0.0749,-0.076,-0.0777,-0.0813,-0.0835,-0.0872,-0.089,-0.0915,-0.094,-0.0966,-0.0976,-0.1013,-0.1008,-0.1025,-0.1043,-0.1044,-0.1049,-0.1059,-0.1049,-0.1034,-0.1035,-0.1053,-0.1053,-0.1053,0,-0.0616,-0.0664,-0.069,-0.0706,-0.0759,-0.077,-0.0793,-0.0829,-0.0849,-0.088,-0.0893,-0.0927,-0.0946,-0.0972,-0.1006,-0.1011,-0.104,-0.1053,-0.1056,-0.1055,-0.1061,-0.1061,-0.105,-0.1071,-0.1071,-0.1071,-0.1071,0,-0.0609,-0.0628,-0.0678,-0.0694,-0.0715,-0.0752,-0.0773,-0.0798,-0.0831,-0.0852,-0.0883,-0.0903,-0.0946,-0.0972,-0.0999,-0.1026,-0.1034,-0.105,-0.1057,-0.1047,-0.1045,-0.1059,-0.106,-0.1071,-0.1071,-0.1071,-0.1071,0,-0.0583,-0.0618,-0.0648,-0.0695,-0.0707,-0.0721,-0.0762,-0.0779,-0.0806,-0.0834,-0.0842,-0.0885,-0.0917,-0.0953,-0.0997,-0.1015,-0.104,-0.105,-0.1028,-0.1032,-0.1033,-0.1033,-0.1032,-0.1034,-0.1053,-0.1052,-0.1052,0,-0.0577,-0.0592,-0.0641,-0.0657,-0.0679,-0.0705,-0.0725,-0.0762,-0.0782,-0.0825,-0.0837,-0.0871,-0.09,-0.0949,-0.0985,-0.1018,-0.103,-0.1027,-0.1035,-0.1025,-0.1031,-0.103,-0.1032,-0.1025,-0.1025,-0.1024,-0.1024,0,-0.0563,-0.0579,-0.0607,-0.0641,-0.0664,-0.0692,-0.0722,-0.0734,-0.0777,-0.0798,-0.0831,-0.0853,-0.0898,-0.0931,-0.097,-0.0994,-0.1017,-0.1021,-0.1024,-0.1015,-0.1001,-0.1009,-0.1022,-0.1021,-0.1021,-0.1022,-0.1022,-0.1022,-0.0547,-0.0562,-0.0599,-0.0629,-0.0655,-0.0682,-0.0701,-0.073,-0.0758,-0.0797,-0.0817,-0.0849,-0.0886,-0.094,-0.0963,-0.099,-0.0997,-0.1001,-0.1002,-0.1003,-0.1,-0.0996,-0.0997,-0.0997,-0.0997,-0.0997,-0.0997,0,-0.0535,-0.0561,-0.0588,-0.0628,-0.0652,-0.0671,-0.0705,-0.0724,-0.0751,-0.0784,-0.0812,-0.0849,-0.0882,-0.092,-0.0956,-0.097,-0.0981,-0.0978,-0.0978,-0.0983,-0.0991,-0.0986,-0.0968,-0.0968,-0.0968,-0.0968,-0.0968,-0.0968,-0.0532,-0.0558,-0.0579,-0.0619,-0.0645,-0.0676,-0.0694,-0.072,-0.0746,-0.0786,-0.0814,-0.0838,-0.0873,-0.0912,-0.0943,-0.0953,-0.0965,-0.0959,-0.0973,-0.098,-0.0982,-0.0985,-0.098,-0.0961,-0.0961,-0.0963,-0.0963,-0.0963]}]]